^^
Saratoga-Weather Station Historical Data
Daily Summary for September 23, 2020 Units:  Metric    English   Both
Daily Weekly Monthly Yearly Custom
  High: Low: Average:
Temperature: 29 °C 14.9 °C 21.6 °C
Dew Point: 11.7 °C 8.4 °C 9.8 °C
Humidity: 66% 31% 49%
Wind Speed: 12.9km/h 0km/h 2.7km/h
Wind Gust: 17.7km/h - -
Wind- - SW
Pressure: 1018.3 hPa 1011.9 hPa -
Precipitation: 0.0 mm    
Historical Graphs
 
 
Tabular Data for September 23, 2020
Time Temperature Dew Point Pressure Wind Wind Speed Wind Gust Humidity Rainfall Rate (Hourly) solar
00:02 19.6 °C 11.1 °C 1017.6 hPa WSW 7.9 km/h 8 km/h 58% 0.0 mm 0 W/m2
00:07 19.4 °C 10.9 °C 1017.6 hPa WNW 4.7 km/h 6.4 km/h 58% 0.0 mm 0 W/m2
00:12 19.3 °C 10.8 °C 1017.6 hPa NW 3.2 km/h 8 km/h 58% 0.0 mm 0 W/m2
00:17 19.3 °C 10.8 °C 1017.6 hPa North 1.4 km/h 6.4 km/h 58% 0.0 mm 0 W/m2
00:22 19.2 °C 11 °C 1017.6 hPa West 1.4 km/h 4.8 km/h 59% 0.0 mm 0 W/m2
00:27 19.1 °C 10.9 °C 1017.6 hPa WNW 3.2 km/h 8 km/h 59% 0.0 mm 0 W/m2
00:32 19 °C 10.8 °C 1018.0 hPa West 3.2 km/h 6.4 km/h 59% 0.0 mm 0 W/m2
00:38 18.8 °C 10.6 °C 1018.0 hPa NW 4.7 km/h 6.4 km/h 59% 0.0 mm 0 W/m2
00:43 18.7 °C 10.5 °C 1018.0 hPa North 1.4 km/h 6.4 km/h 59% 0.0 mm 0 W/m2
00:48 18.7 °C 10.5 °C 1018.0 hPa WNW 4.7 km/h 9.7 km/h 59% 0.0 mm 0 W/m2
00:53 18.6 °C 10.2 °C 1018.0 hPa NW 4.7 km/h 4.8 km/h 58% 0.0 mm 0 W/m2
00:58 18.4 °C 10.2 °C 1018.0 hPa WNW 4.7 km/h 8 km/h 59% 0.0 mm 0 W/m2
01:03 18.4 °C 10 °C 1018.3 hPa West 4.7 km/h 4.8 km/h 58% 0.0 mm 0 W/m2
01:08 18.2 °C 9.8 °C 1018.3 hPa NW 4.7 km/h 6.4 km/h 58% 0.0 mm 0 W/m2
01:13 18.2 °C 9.5 °C 1018.3 hPa WNW 3.2 km/h 4.8 km/h 57% 0.0 mm 0 W/m2
01:18 18.2 °C 9.5 °C 1018.3 hPa Calm   12.9 km/h 57% 0.0 mm 0 W/m2
01:23 18.1 °C 9.4 °C 1018.3 hPa WNW 3.2 km/h 4.8 km/h 57% 0.0 mm 0 W/m2
01:28 18 °C 9.4 °C 1018.3 hPa NW 7.9 km/h 12.9 km/h 57% 0.0 mm 0 W/m2
01:33 17.9 °C 9 °C 1018.3 hPa NNW 3.2 km/h 11.3 km/h 56% 0.0 mm 0 W/m2
01:38 17.9 °C 9 °C 1018.3 hPa West 3.2 km/h 4.8 km/h 56% 0.0 mm 0 W/m2
01:43 17.9 °C 9 °C 1018.3 hPa WNW 3.2 km/h 11.3 km/h 56% 0.0 mm 0 W/m2
01:48 17.7 °C 9.1 °C 1018.0 hPa WSW 4.7 km/h 11.3 km/h 57% 0.0 mm 0 W/m2
01:53 17.7 °C 9.1 °C 1018.0 hPa Calm   4.8 km/h 57% 0.0 mm 0 W/m2
01:58 17.6 °C 9 °C 1018.0 hPa NW 1.4 km/h 9.7 km/h 57% 0.0 mm 0 W/m2
02:03 17.6 °C 9 °C 1018.0 hPa Calm   4.8 km/h 57% 0.0 mm 0 W/m2
02:08 17.4 °C 9.1 °C 1018.0 hPa WNW 3.2 km/h 4.8 km/h 58% 0.0 mm 0 W/m2
02:13 17.4 °C 9.1 °C 1018.0 hPa WSW 4.7 km/h 6.4 km/h 58% 0.0 mm 0 W/m2
02:18 17.3 °C 9.2 °C 1018.0 hPa West 1.4 km/h 4.8 km/h 59% 0.0 mm 0 W/m2
02:23 17.2 °C 9.1 °C 1018.0 hPa West 8 km/h 8 km/h 59% 0.0 mm 0 W/m2
02:28 17.1 °C 9 °C 1018.0 hPa WNW 3.2 km/h 9.7 km/h 59% 0.0 mm 0 W/m2
02:33 17.1 °C 9 °C 1018.0 hPa West 3.2 km/h 3.2 km/h 59% 0.0 mm 0 W/m2
02:38 16.9 °C 9.1 °C 1018.0 hPa WSW 1.4 km/h 9.7 km/h 60% 0.0 mm 0 W/m2
02:43 16.8 °C 9 °C 1018.0 hPa SW 3.2 km/h 6.4 km/h 60% 0.0 mm 0 W/m2
02:48 16.7 °C 8.9 °C 1018.0 hPa Calm   4.8 km/h 60% 0.0 mm 0 W/m2
02:53 16.6 °C 8.8 °C 1018.0 hPa West 3.2 km/h 6.4 km/h 60% 0.0 mm 0 W/m2
02:58 16.6 °C 8.8 °C 1018.0 hPa WNW 4.7 km/h 4.8 km/h 60% 0.0 mm 0 W/m2
03:03 16.6 °C 8.8 °C 1018.0 hPa Calm   3.2 km/h 60% 0.0 mm 0 W/m2
03:09 16.5 °C 8.7 °C 1018.0 hPa NW 1.4 km/h 4.8 km/h 60% 0.0 mm 0 W/m2
03:14 16.4 °C 8.6 °C 1017.6 hPa NW 1.4 km/h 6.4 km/h 60% 0.0 mm 0 W/m2
03:19 16.3 °C 8.5 °C 1017.6 hPa WSW 4.7 km/h 4.8 km/h 60% 0.0 mm 0 W/m2
03:24 16.3 °C 8.5 °C 1017.6 hPa WNW 1.4 km/h 6.4 km/h 60% 0.0 mm 0 W/m2
03:29 16.3 °C 8.8 °C 1017.6 hPa NW 3.2 km/h 3.2 km/h 61% 0.0 mm 0 W/m2
03:34 16.2 °C 8.7 °C 1017.6 hPa WNW 1.4 km/h 6.4 km/h 61% 0.0 mm 0 W/m2
03:39 16.2 °C 8.7 °C 1017.6 hPa ESE 4.7 km/h 11.3 km/h 61% 0.0 mm 0 W/m2
03:44 16.1 °C 8.6 °C 1017.6 hPa West 3.2 km/h 3.2 km/h 61% 0.0 mm 0 W/m2
03:49 16.1 °C 8.6 °C 1017.6 hPa West 3.2 km/h 4.8 km/h 61% 0.0 mm 0 W/m2
03:54 16 °C 8.7 °C 1017.6 hPa West 3.2 km/h 3.2 km/h 62% 0.0 mm 0 W/m2
03:59 15.9 °C 8.6 °C 1017.6 hPa West 1.4 km/h 8 km/h 62% 0.0 mm 0 W/m2
04:04 15.9 °C 8.6 °C 1017.6 hPa WNW 3.2 km/h 4.8 km/h 62% 0.0 mm 0 W/m2
04:09 15.9 °C 8.6 °C 1017.6 hPa WNW 1.4 km/h 4.8 km/h 62% 0.0 mm 0 W/m2
04:14 15.8 °C 8.5 °C 1017.6 hPa Calm   4.8 km/h 62% 0.0 mm 0 W/m2
04:19 15.7 °C 8.7 °C 1017.6 hPa WSW 1.4 km/h 4.8 km/h 63% 0.0 mm 0 W/m2
04:25 15.7 °C 8.7 °C 1017.6 hPa WNW 1.4 km/h 1.6 km/h 63% 0.0 mm 0 W/m2
04:30 15.7 °C 8.7 °C 1017.6 hPa WSW 7.9 km/h 9.7 km/h 63% 0.0 mm 0 W/m2
04:35 15.7 °C 8.7 °C 1017.3 hPa West 3.2 km/h 6.4 km/h 63% 0.0 mm 0 W/m2
04:40 15.7 °C 8.7 °C 1017.3 hPa Calm   4.8 km/h 63% 0.0 mm 0 W/m2
04:45 15.7 °C 8.7 °C 1017.3 hPa West 1.4 km/h 6.4 km/h 63% 0.0 mm 0 W/m2
04:50 15.7 °C 8.7 °C 1017.3 hPa WSW 3.2 km/h 6.4 km/h 63% 0.0 mm 0 W/m2
04:55 15.6 °C 8.6 °C 1017.3 hPa NW 1.4 km/h 4.8 km/h 63% 0.0 mm 0 W/m2
05:00 15.6 °C 8.8 °C 1017.3 hPa WNW 3.2 km/h 3.2 km/h 64% 0.0 mm 0 W/m2
05:05 15.4 °C 8.6 °C 1017.3 hPa WNW 1.4 km/h 3.2 km/h 64% 0.0 mm 0 W/m2
05:10 15.3 °C 8.5 °C 1017.3 hPa Calm   6.4 km/h 64% 0.0 mm 0 W/m2
05:16 15.3 °C 8.5 °C 1017.3 hPa West 3.2 km/h 4.8 km/h 64% 0.0 mm 0 W/m2
05:21 15.3 °C 8.5 °C 1017.3 hPa West 6.4 km/h 6.4 km/h 64% 0.0 mm 0 W/m2
05:26 15.2 °C 8.7 °C 1017.3 hPa WNW 3.2 km/h 3.2 km/h 65% 0.0 mm 0 W/m2
05:31 15.2 °C 8.7 °C 1017.3 hPa WNW 4.7 km/h 4.8 km/h 65% 0.0 mm 0 W/m2
05:36 15.2 °C 8.7 °C 1017.3 hPa WNW 3.2 km/h 4.8 km/h 65% 0.0 mm 0 W/m2
05:41 15.2 °C 8.7 °C 1017.3 hPa West 3.2 km/h 4.8 km/h 65% 0.0 mm 0 W/m2
05:46 15.2 °C 8.7 °C 1017.3 hPa SW 4.7 km/h 4.8 km/h 65% 0.0 mm 0 W/m2
05:51 15.1 °C 8.6 °C 1017.3 hPa WSW 3.2 km/h 3.2 km/h 65% 0.0 mm 0 W/m2
05:56 15.1 °C 8.6 °C 1017.3 hPa Calm   3.2 km/h 65% 0.0 mm 0 W/m2
06:01 15 °C 8.5 °C 1017.3 hPa West 3.2 km/h 4.8 km/h 65% 0.0 mm 5 W/m2
06:06 14.9 °C 8.6 °C 1017.3 hPa West 1.4 km/h 3.2 km/h 66% 0.0 mm 7 W/m2
06:11 14.9 °C 8.6 °C 1017.3 hPa West 3.2 km/h 4.8 km/h 66% 0.0 mm 9 W/m2
06:16 14.9 °C 8.6 °C 1017.3 hPa West 1.4 km/h 3.2 km/h 66% 0.0 mm 11 W/m2
06:26 14.9 °C 8.6 °C 1016.9 hPa WSW 4.7 km/h 4.8 km/h 66% 0.0 mm 14 W/m2
06:31 14.9 °C 8.6 °C 1017.3 hPa West 3.2 km/h 3.2 km/h 66% 0.0 mm 18 W/m2
06:36 14.9 °C 8.6 °C 1017.3 hPa SW 3.2 km/h 6.4 km/h 66% 0.0 mm 19 W/m2
06:41 14.9 °C 8.6 °C 1017.3 hPa NW 1.4 km/h 3.2 km/h 66% 0.0 mm 21 W/m2
06:46 15 °C 8.5 °C 1017.3 hPa Calm   6.4 km/h 65% 0.0 mm 23 W/m2
06:51 15 °C 8.7 °C 1017.3 hPa WNW 3.2 km/h 3.2 km/h 66% 0.0 mm 25 W/m2
06:57 15.1 °C 8.6 °C 1016.9 hPa NNW 1.4 km/h 8 km/h 65% 0.0 mm 25 W/m2
07:02 15.1 °C 8.6 °C 1016.9 hPa NW 1.4 km/h 6.4 km/h 65% 0.0 mm 26 W/m2
07:07 15.1 °C 8.6 °C 1016.9 hPa WNW 1.4 km/h 8 km/h 65% 0.0 mm 28 W/m2
07:12 15.2 °C 8.7 °C 1016.9 hPa North 1.4 km/h 3.2 km/h 65% 0.0 mm 30 W/m2
07:17 15.2 °C 8.7 °C 1016.9 hPa WNW 3.2 km/h 4.8 km/h 65% 0.0 mm 32 W/m2
07:22 15.2 °C 8.7 °C 1016.9 hPa NNW 3.2 km/h 3.2 km/h 65% 0.0 mm 32 W/m2
07:27 15.2 °C 8.7 °C 1016.9 hPa Calm   4.8 km/h 65% 0.0 mm 32 W/m2
07:32 15.3 °C 8.8 °C 1016.9 hPa Calm   1.6 km/h 65% 0.0 mm 32 W/m2
07:37 15.3 °C 8.8 °C 1016.9 hPa WNW 3.2 km/h 3.2 km/h 65% 0.0 mm 33 W/m2
07:42 15.3 °C 8.8 °C 1016.9 hPa NNE 3.2 km/h 4.8 km/h 65% 0.0 mm 35 W/m2
07:47 15.4 °C 8.9 °C 1016.9 hPa WNW 3.2 km/h 4.8 km/h 65% 0.0 mm 37 W/m2
07:52 15.5 °C 8.9 °C 1016.9 hPa Calm   3.2 km/h 65% 0.0 mm 39 W/m2
07:57 15.6 °C 9 °C 1016.9 hPa NW 6.4 km/h 6.4 km/h 65% 0.0 mm 153 W/m2
08:02 15.7 °C 9.1 °C 1016.9 hPa NNW 4.7 km/h 8 km/h 65% 0.0 mm 221 W/m2
08:07 15.8 °C 9 °C 1016.9 hPa NW 1.4 km/h 3.2 km/h 64% 0.0 mm 241 W/m2
08:12 16 °C 9.2 °C 1016.9 hPa WNW 3.2 km/h 8 km/h 64% 0.0 mm 246 W/m2
08:17 16.2 °C 9.4 °C 1016.9 hPa WNW 1.4 km/h 4.8 km/h 64% 0.0 mm 265 W/m2
08:22 16.4 °C 9.1 °C 1016.9 hPa NNW 3.2 km/h 9.7 km/h 62% 0.0 mm 279 W/m2
08:27 16.6 °C 9.5 °C 1016.9 hPa NNE 4.7 km/h 6.4 km/h 63% 0.0 mm 216 W/m2
08:32 16.8 °C 9.5 °C 1016.9 hPa WNW 3.2 km/h 9.7 km/h 62% 0.0 mm 120 W/m2
08:37 17.1 °C 9.8 °C 1016.9 hPa Calm   1.6 km/h 62% 0.0 mm 47 W/m2
08:42 17.4 °C 9.8 °C 1016.9 hPa NNW 4.7 km/h 4.8 km/h 61% 0.0 mm 46 W/m2
08:47 17.7 °C 10.1 °C 1016.9 hPa ESE 4.7 km/h 4.8 km/h 61% 0.0 mm 46 W/m2
08:52 18 °C 10.1 °C 1016.9 hPa NE 1.4 km/h 8 km/h 60% 0.0 mm 44 W/m2
08:57 18.3 °C 10.1 °C 1016.9 hPa North 1.4 km/h 4.8 km/h 59% 0.0 mm 46 W/m2
09:02 18.3 °C 9.9 °C 1016.9 hPa West 1.4 km/h 3.2 km/h 58% 0.0 mm 47 W/m2
09:07 18.4 °C 10 °C 1016.9 hPa WNW 3.2 km/h 4.8 km/h 58% 0.0 mm 51 W/m2
09:12 18.6 °C 10.2 °C 1016.9 hPa Calm   1.6 km/h 58% 0.0 mm 53 W/m2
09:17 18.7 °C 10.5 °C 1016.9 hPa NNW 1.4 km/h 3.2 km/h 59% 0.0 mm 113 W/m2
09:22 18.9 °C 10.5 °C 1016.9 hPa East 3.2 km/h 4.8 km/h 58% 0.0 mm 343 W/m2
09:27 19.1 °C 10.4 °C 1016.9 hPa NE 3.2 km/h 6.4 km/h 57% 0.0 mm 429 W/m2
09:32 19.2 °C 10.7 °C 1016.9 hPa NNW 4.7 km/h 4.8 km/h 58% 0.0 mm 448 W/m2
09:37 19.3 °C 10.6 °C 1016.9 hPa NNW 1.4 km/h 4.8 km/h 57% 0.0 mm 468 W/m2
09:42 19.3 °C 10.3 °C 1016.9 hPa NNW 1.4 km/h 1.6 km/h 56% 0.0 mm 487 W/m2
09:47 19.6 °C 10.8 °C 1016.9 hPa NE 4.7 km/h 4.8 km/h 57% 0.0 mm 503 W/m2
09:52 20.1 °C 10.8 °C 1016.9 hPa Calm   4.8 km/h 55% 0.0 mm 519 W/m2
09:57 20.5 °C 10.9 °C 1016.9 hPa North 7.9 km/h 9.7 km/h 54% 0.0 mm 531 W/m2
10:02 20.6 °C 10.7 °C 1016.6 hPa Calm   6.4 km/h 53% 0.0 mm 499 W/m2
10:07 20.6 °C 11 °C 1016.6 hPa NNW 1.4 km/h 4.8 km/h 54% 0.0 mm 53 W/m2
10:12 20.8 °C 10.9 °C 1016.6 hPa ENE 4.7 km/h 12.9 km/h 53% 0.0 mm 568 W/m2
10:17 21 °C 10.8 °C 1016.6 hPa ESE 3.2 km/h 6.4 km/h 52% 0.0 mm 578 W/m2
10:23 21.1 °C 10.9 °C 1016.6 hPa ENE 1.4 km/h 4.8 km/h 52% 0.0 mm 591 W/m2
10:28 21.2 °C 10.7 °C 1016.6 hPa NW 1.4 km/h 4.8 km/h 51% 0.0 mm 605 W/m2
10:33 21.4 °C 10.5 °C 1016.6 hPa NE 1.4 km/h 4.8 km/h 50% 0.0 mm 615 W/m2
10:38 21.7 °C 10.8 °C 1016.6 hPa WNW 1.4 km/h 3.2 km/h 50% 0.0 mm 629 W/m2
10:43 21.8 °C 10 °C 1016.6 hPa ENE 1.4 km/h 12.9 km/h 47% 0.0 mm 642 W/m2
10:48 21.8 °C 9.7 °C 1016.6 hPa ENE 1.4 km/h 4.8 km/h 46% 0.0 mm 652 W/m2
10:53 21.7 °C 9.9 °C 1016.6 hPa NW 3.2 km/h 4.8 km/h 47% 0.0 mm 661 W/m2
10:58 21.9 °C 10.1 °C 1016.6 hPa NE 4.7 km/h 8 km/h 47% 0.0 mm 673 W/m2
11:03 22.1 °C 9.9 °C 1016.6 hPa East 3.2 km/h 12.9 km/h 46% 0.0 mm 687 W/m2
11:13 22.1 °C 10.3 °C 1016.3 hPa SE 3.2 km/h 12.9 km/h 47% 0.0 mm 701 W/m2
11:18 22 °C 10.2 °C 1016.3 hPa NNW 1.4 km/h 6.4 km/h 47% 0.0 mm 714 W/m2
11:23 22.1 °C 10.3 °C 1016.3 hPa NE 4.7 km/h 6.4 km/h 47% 0.0 mm 724 W/m2
11:28 22.1 °C 9.9 °C 1016.3 hPa NNW 3.2 km/h 6.4 km/h 46% 0.0 mm 737 W/m2
11:33 22.1 °C 10.3 °C 1016.3 hPa NE 7.9 km/h 8 km/h 47% 0.0 mm 751 W/m2
11:38 22.3 °C 10.1 °C 1016.3 hPa East 6.4 km/h 6.4 km/h 46% 0.0 mm 758 W/m2
11:43 22.3 °C 10.1 °C 1016.3 hPa Calm   3.2 km/h 46% 0.0 mm 775 W/m2
11:48 22.3 °C 10.1 °C 1016.3 hPa SSW 1.4 km/h 6.4 km/h 46% 0.0 mm 761 W/m2
11:53 22.3 °C 9.8 °C 1016.3 hPa ENE 1.4 km/h 3.2 km/h 45% 0.0 mm 666 W/m2
11:58 22.4 °C 10.2 °C 1016.3 hPa ESE 4.7 km/h 9.7 km/h 46% 0.0 mm 621 W/m2
12:03 22.7 °C 10.2 °C 1016.3 hPa ENE 1.4 km/h 6.4 km/h 45% 0.0 mm 731 W/m2
12:08 22.8 °C 9.9 °C 1016.3 hPa NE 1.4 km/h 6.4 km/h 44% 0.0 mm 661 W/m2
12:13 22.9 °C 10 °C 1016.3 hPa NNW 1.4 km/h 4.8 km/h 44% 0.0 mm 722 W/m2
12:18 23.2 °C 10.3 °C 1016.3 hPa NNE 4.7 km/h 6.4 km/h 44% 0.0 mm 793 W/m2
12:23 23.5 °C 9.8 °C 1015.9 hPa SE 3.2 km/h 6.4 km/h 42% 0.0 mm 835 W/m2
12:28 23.6 °C 9.9 °C 1015.9 hPa NE 3.2 km/h 4.8 km/h 42% 0.0 mm 606 W/m2
12:33 23.6 °C 9.6 °C 1015.9 hPa West 3.2 km/h 4.8 km/h 41% 0.0 mm 793 W/m2
12:38 23.8 °C 10.1 °C 1015.9 hPa ESE 4.7 km/h 6.4 km/h 42% 0.0 mm 722 W/m2
12:43 24.2 °C 9.7 °C 1015.9 hPa Calm   4.8 km/h 40% 0.0 mm 729 W/m2
12:48 24.3 °C 9.1 °C 1015.9 hPa WNW 3.2 km/h 6.4 km/h 38% 0.0 mm 712 W/m2
12:53 24.4 °C 9.5 °C 1015.6 hPa WSW 6.4 km/h 6.4 km/h 39% 0.0 mm 835 W/m2
12:59 24.4 °C 9.5 °C 1015.6 hPa West 6.4 km/h 8 km/h 39% 0.0 mm 796 W/m2
13:04 24.7 °C 10.2 °C 1015.6 hPa ENE 1.4 km/h 3.2 km/h 40% 0.0 mm 826 W/m2
13:09 24.9 °C 9.6 °C 1015.6 hPa SW 1.4 km/h 4.8 km/h 38% 0.0 mm 877 W/m2
13:14 24.9 °C 9.6 °C 1015.2 hPa SW 3.2 km/h 4.8 km/h 38% 0.0 mm 830 W/m2
13:19 25 °C 9.7 °C 1015.6 hPa WNW 1.4 km/h 6.4 km/h 38% 0.0 mm 802 W/m2
13:24 25.1 °C 9.8 °C 1015.2 hPa Calm   3.2 km/h 38% 0.0 mm 745 W/m2
13:29 25.3 °C 9.6 °C 1015.2 hPa NW 3.2 km/h 6.4 km/h 37% 0.0 mm 728 W/m2
13:34 25.3 °C 8.7 °C 1015.2 hPa NE 1.4 km/h 11.3 km/h 35% 0.0 mm 886 W/m2
13:39 25.4 °C 8.4 °C 1015.2 hPa NNE 1.4 km/h 4.8 km/h 34% 0.0 mm 879 W/m2
13:44 25.7 °C 9.1 °C 1015.2 hPa ENE 1.4 km/h 9.7 km/h 35% 0.0 mm 872 W/m2
13:49 25.7 °C 8.7 °C 1015.2 hPa NW 4.7 km/h 8 km/h 34% 0.0 mm 914 W/m2
13:54 25.7 °C 9.1 °C 1015.2 hPa ENE 3.2 km/h 8 km/h 35% 0.0 mm 860 W/m2
13:59 25.7 °C 9.5 °C 1015.2 hPa East 6.4 km/h 12.9 km/h 36% 0.0 mm 895 W/m2
14:04 25.8 °C 9.2 °C 1015.2 hPa West 3.2 km/h 4.8 km/h 35% 0.0 mm 805 W/m2
14:09 26.1 °C 9.4 °C 1015.2 hPa ESE 9.7 km/h 12.9 km/h 35% 0.0 mm 928 W/m2
14:14 26.2 °C 9.1 °C 1014.9 hPa East 3.2 km/h 9.7 km/h 34% 0.0 mm 916 W/m2
14:19 26.2 °C 9.5 °C 1014.9 hPa Calm   12.9 km/h 35% 0.0 mm 914 W/m2
14:24 26.3 °C 9.2 °C 1014.9 hPa ESE 4.7 km/h 6.4 km/h 34% 0.0 mm 898 W/m2
14:29 26.1 °C 9.4 °C 1014.9 hPa ESE 4.7 km/h 6.4 km/h 35% 0.0 mm 870 W/m2
14:34 26 °C 9.8 °C 1014.6 hPa West 1.4 km/h 6.4 km/h 36% 0.0 mm 863 W/m2
14:39 26.2 °C 9.5 °C 1014.6 hPa ESE 4.7 km/h 6.4 km/h 35% 0.0 mm 684 W/m2
14:44 26.3 °C 9.2 °C 1014.6 hPa WNW 1.4 km/h 4.8 km/h 34% 0.0 mm 872 W/m2
14:49 26.7 °C 9.5 °C 1014.6 hPa NNE 1.4 km/h 9.7 km/h 34% 0.0 mm 830 W/m2
14:54 26.7 °C 9.5 °C 1014.6 hPa WNW 4.7 km/h 6.4 km/h 34% 0.0 mm 868 W/m2
14:59 26.8 °C 10.1 °C 1014.6 hPa ENE 3.2 km/h 4.8 km/h 35% 0.0 mm 865 W/m2
15:04 27.1 °C 9.9 °C 1014.6 hPa NNW 12.9 km/h 12.9 km/h 34% 0.0 mm 860 W/m2
15:09 26.9 °C 9.7 °C 1014.6 hPa NNE 3.2 km/h 4.8 km/h 34% 0.0 mm 831 W/m2
15:14 26.9 °C 9.7 °C 1014.6 hPa NNW 3.2 km/h 6.4 km/h 34% 0.0 mm 853 W/m2
15:19 27.2 °C 9.5 °C 1014.2 hPa WSW 4.7 km/h 4.8 km/h 33% 0.0 mm 847 W/m2
15:24 27.2 °C 10 °C 1014.2 hPa WNW 3.2 km/h 6.4 km/h 34% 0.0 mm 817 W/m2
15:29 26.9 °C 9.3 °C 1014.2 hPa NNW 1.4 km/h 6.4 km/h 33% 0.0 mm 830 W/m2
15:34 27.3 °C 10.1 °C 1014.2 hPa ESE 4.7 km/h 4.8 km/h 34% 0.0 mm 814 W/m2
15:39 27.5 °C 10.2 °C 1013.9 hPa ENE 4.7 km/h 6.4 km/h 34% 0.0 mm 805 W/m2
15:44 27.6 °C 9.4 °C 1013.9 hPa WNW 1.4 km/h 4.8 km/h 32% 0.0 mm 800 W/m2
15:49 27.7 °C 10 °C 1013.9 hPa ENE 7.9 km/h 9.7 km/h 33% 0.0 mm 779 W/m2
15:54 27.7 °C 10 °C 1013.9 hPa NW 3.2 km/h 3.2 km/h 33% 0.0 mm 742 W/m2
15:59 27.8 °C 9.6 °C 1013.9 hPa NNW 4.7 km/h 6.4 km/h 32% 0.0 mm 777 W/m2
16:04 27.8 °C 10.1 °C 1013.5 hPa East 3.2 km/h 6.4 km/h 33% 0.0 mm 759 W/m2
16:09 27.9 °C 9.7 °C 1013.9 hPa NE 4.7 km/h 9.7 km/h 32% 0.0 mm 754 W/m2
16:14 27.7 °C 9.5 °C 1013.5 hPa Calm   9.7 km/h 32% 0.0 mm 749 W/m2
16:19 27.7 °C 10 °C 1013.5 hPa SE 3.2 km/h 6.4 km/h 33% 0.0 mm 740 W/m2
16:24 27.8 °C 9.6 °C 1013.5 hPa East 1.4 km/h 16.1 km/h 32% 0.0 mm 735 W/m2
16:29 27.9 °C 9.7 °C 1013.5 hPa ENE 3.2 km/h 9.7 km/h 32% 0.0 mm 726 W/m2
16:34 28 °C 9.3 °C 1013.5 hPa ENE 6.4 km/h 14.5 km/h 31% 0.0 mm 726 W/m2
16:39 28.2 °C 10.4 °C 1013.2 hPa ENE 1.4 km/h 4.8 km/h 33% 0.0 mm 638 W/m2
16:44 28.4 °C 10.1 °C 1013.2 hPa NNE 3.2 km/h 12.9 km/h 32% 0.0 mm 724 W/m2
16:49 28.6 °C 10.3 °C 1013.2 hPa NNE 3.2 km/h 11.3 km/h 32% 0.0 mm 696 W/m2
16:54 28.5 °C 9.7 °C 1013.2 hPa North 4.7 km/h 17.7 km/h 31% 0.0 mm 722 W/m2
16:59 28.2 °C 9.5 °C 1013.2 hPa ESE 3.2 km/h 9.7 km/h 31% 0.0 mm 668 W/m2
17:04 28.3 °C 10 °C 1013.2 hPa NNW 3.2 km/h 4.8 km/h 32% 0.0 mm 589 W/m2
17:09 28.4 °C 10.1 °C 1013.2 hPa East 3.2 km/h 9.7 km/h 32% 0.0 mm 575 W/m2
17:14 28.6 °C 9.8 °C 1012.9 hPa East 3.2 km/h 3.2 km/h 31% 0.0 mm 557 W/m2
17:19 28.8 °C 10 °C 1012.9 hPa NW 3.2 km/h 9.7 km/h 31% 0.0 mm 420 W/m2
17:24 28.5 °C 10.2 °C 1012.9 hPa ENE 4.7 km/h 6.4 km/h 32% 0.0 mm 478 W/m2
17:29 28.4 °C 9.6 °C 1012.9 hPa West 9.7 km/h 9.7 km/h 31% 0.0 mm 612 W/m2
17:34 28.4 °C 10.1 °C 1012.9 hPa SW 4.7 km/h 8 km/h 32% 0.0 mm 647 W/m2
17:39 28.6 °C 10.8 °C 1012.9 hPa NE 3.2 km/h 4.8 km/h 33% 0.0 mm 613 W/m2
17:44 28.7 °C 10.8 °C 1012.9 hPa NNW 1.4 km/h 11.3 km/h 33% 0.0 mm 582 W/m2
17:49 29 °C 10.6 °C 1012.5 hPa NNE 1.4 km/h 6.4 km/h 32% 0.0 mm 550 W/m2
17:54 28.8 °C 10 °C 1012.5 hPa ESE 6.4 km/h 12.9 km/h 31% 0.0 mm 541 W/m2
17:59 28.6 °C 10.3 °C 1012.5 hPa NW 3.2 km/h 14.5 km/h 32% 0.0 mm 512 W/m2
18:04 28.4 °C 10.1 °C 1012.5 hPa West 1.4 km/h 6.4 km/h 32% 0.0 mm 485 W/m2
18:09 28.3 °C 10 °C 1012.5 hPa WNW 4.7 km/h 8 km/h 32% 0.0 mm 519 W/m2
18:14 28.2 °C 9.9 °C 1012.5 hPa NW 4.7 km/h 8 km/h 32% 0.0 mm 476 W/m2
18:19 28.3 °C 10.5 °C 1012.5 hPa ESE 1.4 km/h 3.2 km/h 33% 0.0 mm 394 W/m2
18:24 28.4 °C 9.6 °C 1012.5 hPa NE 4.7 km/h 9.7 km/h 31% 0.0 mm 399 W/m2
18:29 28.2 °C 9.9 °C 1012.5 hPa NNE 7.9 km/h 11.3 km/h 32% 0.0 mm 339 W/m2
18:34 28.2 °C 10.4 °C 1012.5 hPa NNW 3.2 km/h 4.8 km/h 33% 0.0 mm 411 W/m2
18:39 27.9 °C 9.7 °C 1012.5 hPa NNW 4.7 km/h 9.7 km/h 32% 0.0 mm 153 W/m2
18:44 27.8 °C 10.1 °C 1012.5 hPa North 3.2 km/h 6.4 km/h 33% 0.0 mm 443 W/m2
18:49 27.9 °C 10.1 °C 1012.5 hPa NNE 1.4 km/h 9.7 km/h 33% 0.0 mm 404 W/m2
18:54 28.1 °C 9.9 °C 1012.5 hPa NNE 4.7 km/h 4.8 km/h 32% 0.0 mm 371 W/m2
18:59 28.1 °C 9.9 °C 1012.5 hPa ENE 6.4 km/h 6.4 km/h 32% 0.0 mm 269 W/m2
19:05 27.9 °C 10.1 °C 1012.5 hPa NNW 1.4 km/h 6.4 km/h 33% 0.0 mm 279 W/m2
19:10 28 °C 10.7 °C 1012.5 hPa NE 1.4 km/h 3.2 km/h 34% 0.0 mm 260 W/m2
19:15 28.1 °C 9.9 °C 1012.5 hPa ENE 1.4 km/h 4.8 km/h 32% 0.0 mm 232 W/m2
19:20 27.8 °C 10.1 °C 1012.5 hPa ENE 3.2 km/h 3.2 km/h 33% 0.0 mm 244 W/m2
19:25 27.6 °C 10.3 °C 1012.2 hPa East 12.9 km/h 12.9 km/h 34% 0.0 mm 81 W/m2
19:30 27.1 °C 9.9 °C 1012.2 hPa NE 6.4 km/h 8 km/h 34% 0.0 mm 83 W/m2
19:35 26.7 °C 10 °C 1012.2 hPa ESE 1.4 km/h 3.2 km/h 35% 0.0 mm 91 W/m2
19:40 26.5 °C 10.2 °C 1012.2 hPa Calm   3.2 km/h 36% 0.0 mm 95 W/m2
19:45 26.4 °C 10.1 °C 1012.2 hPa WSW 1.4 km/h 4.8 km/h 36% 0.0 mm 81 W/m2
19:50 26.2 °C 9.9 °C 1012.2 hPa NE 1.4 km/h 3.2 km/h 36% 0.0 mm 79 W/m2
19:55 26.2 °C 10.4 °C 1011.9 hPa East 1.4 km/h 4.8 km/h 37% 0.0 mm 132 W/m2
20:00 26.1 °C 10.3 °C 1011.9 hPa Calm   1.6 km/h 37% 0.0 mm 123 W/m2
20:05 26.2 °C 9.9 °C 1011.9 hPa North 6.4 km/h 6.4 km/h 36% 0.0 mm 155 W/m2
20:10 26.2 °C 10.4 °C 1012.2 hPa WNW 1.4 km/h 3.2 km/h 37% 0.0 mm 102 W/m2
20:15 26.1 °C 9.9 °C 1011.9 hPa ENE 3.2 km/h 3.2 km/h 36% 0.0 mm 90 W/m2
20:20 25.9 °C 10.1 °C 1011.9 hPa WNW 1.4 km/h 4.8 km/h 37% 0.0 mm 74 W/m2
20:25 25.8 °C 10.4 °C 1012.2 hPa West 3.2 km/h 6.4 km/h 38% 0.0 mm 65 W/m2
20:30 25.6 °C 10.2 °C 1012.2 hPa West 1.4 km/h 3.2 km/h 38% 0.0 mm 53 W/m2
20:35 25.4 °C 10 °C 1012.2 hPa WNW 1.4 km/h 3.2 km/h 38% 0.0 mm 42 W/m2
20:40 25.3 °C 10.3 °C 1012.2 hPa North 1.4 km/h 1.6 km/h 39% 0.0 mm 37 W/m2
20:45 25.2 °C 10.3 °C 1012.2 hPa Calm   3.2 km/h 39% 0.0 mm 33 W/m2
20:50 25.1 °C 10.6 °C 1012.2 hPa Calm     40% 0.0 mm 28 W/m2
20:55 24.9 °C 11.1 °C 1011.9 hPa Calm   3.2 km/h 42% 0.0 mm 25 W/m2
21:00 24.7 °C 11.6 °C 1012.2 hPa Calm     44% 0.0 mm 16 W/m2
21:05 24.4 °C 11.7 °C 1012.2 hPa North 1.4 km/h 1.6 km/h 45% 0.0 mm 11 W/m2
21:10 24.2 °C 11.2 °C 1012.2 hPa Calm   1.6 km/h 44% 0.0 mm 7 W/m2
21:15 23.9 °C 11.2 °C 1012.2 hPa North 1.4 km/h 1.6 km/h 45% 0.0 mm 5 W/m2
21:20 23.7 °C 11.4 °C 1012.2 hPa Calm   1.6 km/h 46% 0.0 mm 0 W/m2
21:25 23.6 °C 11.6 °C 1012.2 hPa North 1.4 km/h 1.6 km/h 47% 0.0 mm 0 W/m2
21:30 23.3 °C 11.4 °C 1012.2 hPa Calm     47% 0.0 mm 0 W/m2
21:36 23.2 °C 11.6 °C 1012.2 hPa Calm     48% 0.0 mm 0 W/m2
21:41 22.9 °C 11.3 °C 1012.2 hPa Calm     48% 0.0 mm 0 W/m2
21:46 22.7 °C 11.1 °C 1012.2 hPa Calm   1.6 km/h 48% 0.0 mm 0 W/m2
21:51 22.6 °C 11.3 °C 1012.2 hPa Calm   1.6 km/h 49% 0.0 mm 0 W/m2
21:56 22.3 °C 11.4 °C 1012.2 hPa North 1.4 km/h 1.6 km/h 50% 0.0 mm 0 W/m2
22:01 22.2 °C 11.6 °C 1012.2 hPa Calm   1.6 km/h 51% 0.0 mm 0 W/m2
22:06 22.1 °C 11.5 °C 1012.2 hPa Calm   1.6 km/h 51% 0.0 mm 0 W/m2
22:11 21.9 °C 11.3 °C 1012.2 hPa Calm     51% 0.0 mm 0 W/m2
22:16 21.8 °C 11.2 °C 1012.2 hPa Calm   1.6 km/h 51% 0.0 mm 0 W/m2
22:21 21.8 °C 11.5 °C 1012.2 hPa Calm     52% 0.0 mm 0 W/m2
22:26 21.7 °C 11.4 °C 1012.2 hPa Calm     52% 0.0 mm 0 W/m2
22:31 21.6 °C 11.3 °C 1012.2 hPa Calm     52% 0.0 mm 0 W/m2
22:36 21.6 °C 11.6 °C 1012.2 hPa Calm     53% 0.0 mm 0 W/m2
22:41 21.4 °C 11.4 °C 1012.2 hPa Calm     53% 0.0 mm 0 W/m2
22:46 21.4 °C 11.4 °C 1012.2 hPa North 1.4 km/h 3.2 km/h 53% 0.0 mm 0 W/m2
22:51 21.4 °C 11.4 °C 1012.2 hPa Calm   1.6 km/h 53% 0.0 mm 0 W/m2
22:56 21.4 °C 11.7 °C 1012.2 hPa Calm     54% 0.0 mm 0 W/m2
23:01 21.3 °C 11.3 °C 1012.2 hPa North 1.4 km/h 3.2 km/h 53% 0.0 mm 0 W/m2
23:06 21.3 °C 11.3 °C 1012.2 hPa WSW 1.4 km/h 4.8 km/h 53% 0.0 mm 0 W/m2
23:11 21.3 °C 11.6 °C 1012.2 hPa Calm   1.6 km/h 54% 0.0 mm 0 W/m2
23:16 21.3 °C 11.6 °C 1012.2 hPa Calm   1.6 km/h 54% 0.0 mm 0 W/m2
23:21 21.3 °C 11.6 °C 1012.2 hPa Calm   1.6 km/h 54% 0.0 mm 0 W/m2
23:26 21.2 °C 11.5 °C 1012.2 hPa Calm     54% 0.0 mm 0 W/m2
23:31 21.2 °C 11.5 °C 1012.2 hPa Calm     54% 0.0 mm 0 W/m2
23:36 21.1 °C 11.7 °C 1012.2 hPa WSW 1.4 km/h 1.6 km/h 55% 0.0 mm 0 W/m2
23:41 21 °C 11.6 °C 1012.2 hPa Calm   3.2 km/h 55% 0.0 mm 0 W/m2
23:46 20.9 °C 11.5 °C 1012.2 hPa Calm   1.6 km/h 55% 0.0 mm 0 W/m2
23:51 20.9 °C 11.5 °C 1012.2 hPa Calm     55% 0.0 mm 0 W/m2
23:56 20.8 °C 11.7 °C 1011.9 hPa Calm     56% 0.0 mm 0 W/m2
Juneau County Weather
Compliments of Weather Underground - 4 mb